Regional Weather Roundup
Issued by NWS

Home | Current Version | Previous Version | Graphics & Text | Print | Product List | Glossary On
Versions: 1 2 3 4 5 6 7 8 9 10 11 12 13 14 15 16 17 18 19 20 21 22 23 24 25 26 27 28 29 30 31 32 33 34 35 36 37 38 39 40 41 42 43 44 45 46 47 48 49 50
000
ASUS45 KPSR 101910
RWRAZ

ARIZONA HOURLY REGIONAL WEATHER ROUNDUP
NATIONAL WEATHER SERVICE PHOENIX AZ
1200 PM MST SUN DEC 10 2017

NOTE: FAIR INDICATES FEW OR NO CLOUDS BELOW 12,000 FEET WITH NO
SIGNIFICANT WEATHER AND/OR OBSTRUCTIONS TO VISIBILITY.

AZZ001>003-036-102000-
NORTHWEST ARIZONA

CITY           SKY/WX    TMP DP  RH WIND       PRES   REMARKS
BULLHEAD CITY  MOSUNNY   66   5   9 N29G40    30.32F
KINGMAN        MOSUNNY   57   8  14 N9        30.41F
$$

AZZ004>008-015-016-018-102000-
NORTH CENTRAL ARIZONA

CITY           SKY/WX    TMP DP  RH WIND       PRES   REMARKS
GRAND CANYON   SUNNY     54  -6   8 NE13      30.52F
WILLIAMS       MOSUNNY   57 -11   6 SE9G15    30.47F
PRESCOTT       MOSUNNY   55   5  13 N5        30.44F
FLAGSTAFF      MOSUNNY   46  -2  13 E8        30.52F
PAYSON         MOSUNNY   61   3  10 VRB3G13   30.42F
PAGE           SUNNY     40  16  37 CALM      30.56F
$$

AZZ009>014-017-102000-
NORTHEAST ARIZONA

CITY           SKY/WX    TMP DP  RH WIND       PRES   REMARKS
WINSLOW        MOSUNNY   42   4  20 VRB3      30.54F
SAINT JOHNS    SUNNY     45   6  20 N5        30.49F
WINDOW ROCK    SUNNY     49  -2  12 SW3       30.52F
SHOW LOW       SUNNY     43   5  21 N7        30.51F
$$

AZZ540-542>544-546-548-102000-
GREATER PHOENIX AREA

CITY           SKY/WX    TMP DP  RH WIND       PRES   REMARKS
PHOENIX        PTSUNNY   74  11   9 E16       30.23F
BUCKEYE        PTSUNNY   73  73 100 E20G29    30.23F
GLENDALE       CLOUDY    73  10   9 NE7       30.26F
LUKE AFB       PTSUNNY   73  13  10 NE9       30.23F
DEER VALLEY    MOSUNNY   74   7   7 E9        30.25F
SCOTTSDALE     MOSUNNY   75  15  10 E9        30.27F
MESA-FALCON    MOSUNNY   73  12   9 NE15      30.26F
MESA-GATEWAY   PTSUNNY   73   9   8 E12       30.25F
CHANDLER       SUNNY     73  10   9 CALM      30.25F
$$

AZZ539-553-102000-
SOUTHWEST MARICOPA COUNTY AND PINAL COUNTY

CITY           SKY/WX    TMP DP  RH WIND       PRES   REMARKS
CASA GRANDE    NOT AVBL
$$

AZZ503-504-507>509-102000-
SOUTHEAST ARIZONA

CITY           SKY/WX    TMP DP  RH WIND       PRES   REMARKS
TUCSON         MOSUNNY   71  13  10 SE26G36   30.27F
DAVIS-MONTHAN  PTSUNNY   72  14  11 NE15      30.25F
RYAN FIELD     SUNNY     72  14  11 SE21G26   30.27F
NOGALES        PTSUNNY   65  10  11 E9        30.29F
SIERRA VISTA   PTSUNNY   59   9  13 SE10      30.37F
DOUGLAS        PTSUNNY   62  13  14 E18G24    30.36F
SAFFORD        MOSUNNY   57  15  19 S10       30.42F
$$

AZZ532-102000-
SOUTHWEST ARIZONA

CITY           SKY/WX    TMP DP  RH WIND       PRES   REMARKS
YUMA           CLOUDY    72  18  13 N8        30.20F
$$

CAZ041-043-047-048-061-525>527-560>570-102000-
SOUTHERN CALIFORNIA

CITY           SKY/WX    TMP DP  RH WIND       PRES   REMARKS
DOWNTOWN L.A.  PTSUNNY   73  21  14 CALM      30.15F
L.A. AIRPORT   PTSUNNY   76  16  10 CALM      30.16F
SAN DIEGO      PTSUNNY   78  16   9 NW7       30.14F
BURBANK        PTSUNNY   73  20  13 CALM      30.18F
ONTARIO        PTSUNNY   81   3   5 N12       30.18F
RIVERSIDE      PTSUNNY   76  14   9 NE8       30.20F
PALM SPRINGS   PTSUNNY   80  14   8 VRB5      30.27F
EL CENTRO NAS  MOSUNNY   74  10   8 W7        30.25F
IMPERIAL       MOSUNNY   70  26  19 W6        30.23F
BLYTHE         MOSUNNY   72   9   8 N13       30.26F
NEEDLES        PTSUNNY   69   8   9 N22       30.33F
$$

NVZ020-UTZ003-102000-
SOUTHERN NEVADA-UTAH

CITY           SKY/WX    TMP DP  RH WIND       PRES   REMARKS
LAS VEGAS      MOSUNNY   57   8  14 CALM      30.43F
SALT LAKE CITY SUNNY     36  23  59 NW5       30.65F WCI  32
$$

NMZ009-TXZ055-102000-
NEW MEXICO-WEST TEXAS

CITY           SKY/WX    TMP DP  RH WIND       PRES   REMARKS
ALBUQUERQUE    MOSUNNY   46   7  20 N5        30.52F
EL PASO        PTSUNNY   52  23  32 NE3       30.49F
$$


........................KEY........................
SKY/WX - SKY CONDITION/WEATHER
TMP    - TEMPERATURE IN FAHRENHEIT
DP     - DEW POINT IN FAHRENHEIT
RH     - RELATIVE HUMIDITY IN PERCENT
WIND   - DIRECTION AND SPEED IN MILES PER HOUR (MPH)
VRB    - VARIABLE WIND DIRECTION
PRES   - MEAN SEA LEVEL PRESSURE IN INCHES OF MERCURY
         F - FALLING PRESSURE   R - RISING PRESSURE
         S - STEADY PRESSURE
VSB    - VISIBILITY IN MILES
HX     - HEAT INDEX IN FAHRENHEIT
WCI    - WIND CHILL INDEX IN FAHRENHEIT
TC     - TEMPERATURE IN CELSIUS WHICH IS ALSO KNOWN AS
         TEMPERATURE IN CENTIGRADE
AFB    - AIR FORCE BASE
         LUKE AFB IS LUKE AIR FORCE BASE
         DAVIS-MONTHAN IS DAVIS-MONTHAN AIR FORCE BASE
NAS    - NAVAL AIR STATION
         EL CENTRO NAS IS EL CENTRO NAVAL AIR STATION
N/A    - NOT AVAILABLE




USA.gov is the U.S. government's official web portal to all federal, state and local government web resources and services.